| time (UTC) | temp F | wind direction | speed MPH | gust MPH | rain 1hr in | rain 24hr in | rain mn in | humidity % | barometer mb |
| 20260502221544 | 77 | 337 | 0.0 | 0.0 | 0.00 | 0.00 | 0.00 | 39 | 1019.0 |
| 20260502221032 | 77 | 335 | 0.0 | 0.0 | 0.00 | 0.00 | 0.00 | 39 | 1019.0 |
| 20260502220543 | 77 | 337 | 0.0 | 0.0 | 0.00 | 0.00 | 0.00 | 39 | 1019.1 |
| 20260502220037 | 77 | 336 | 0.0 | 0.0 | 0.00 | 0.00 | 0.00 | 39 | 1019.1 |
| 20260502215608 | 77 | 335 | 0.0 | 0.0 | 0.00 | 0.00 | 0.00 | 39 | 1019.1 |
| 20260502215034 | 77 | 331 | 0.0 | 0.0 | 0.00 | 0.00 | 0.00 | 38 | 1019.2 |
| 20260502214529 | 77 | 336 | 0.0 | 0.0 | 0.00 | 0.00 | 0.00 | 39 | 1019.3 |
| 20260502214108 | 76 | 338 | 0.0 | 0.0 | 0.00 | 0.00 | 0.00 | 38 | 1019.3 |
| 20260502213535 | 76 | 336 | 0.0 | 0.0 | 0.00 | 0.00 | 0.00 | 37 | 1019.4 |
| 20260502213041 | 77 | 336 | 0.0 | 0.0 | 0.00 | 0.00 | 0.00 | 37 | 1019.4 |
| 20260502212538 | 76 | 336 | 0.0 | 0.0 | 0.00 | 0.00 | 0.00 | 38 | 1019.4 |
| 20260502212047 | 77 | 336 | 0.0 | 0.0 | 0.00 | 0.00 | 0.00 | 36 | 1019.5 |
| 20260502211533 | 76 | 337 | 0.0 | 0.0 | 0.00 | 0.00 | 0.00 | 36 | 1019.6 |
| 20260502211033 | 77 | 336 | 0.0 | 0.0 | 0.00 | 0.00 | 0.00 | 36 | 1019.6 |
| 20260502210542 | 77 | 337 | 0.0 | 0.0 | 0.00 | 0.00 | 0.00 | 37 | 1019.6 |
| 20260502210030 | 77 | 331 | 0.0 | 0.0 | 0.00 | 0.00 | 0.00 | 37 | 1019.7 |
| 20260502205541 | 77 | 336 | 0.0 | 0.0 | 0.00 | 0.00 | 0.00 | 40 | 1019.7 |
| 20260502205028 | 77 | 335 | 0.0 | 0.0 | 0.00 | 0.00 | 0.00 | 38 | 1019.8 |
| 20260502204539 | 77 | 335 | 0.0 | 0.0 | 0.00 | 0.00 | 0.00 | 39 | 1019.9 |
| 20260502204033 | 77 | 336 | 0.0 | 0.0 | 0.00 | 0.00 | 0.00 | 40 | 1020.0 |
| 20260502203531 | 76 | 334 | 0.0 | 0.0 | 0.00 | 0.00 | 0.00 | 39 | 1020.0 |
| 20260502203042 | 76 | 337 | 0.0 | 0.0 | 0.00 | 0.00 | 0.00 | 38 | 1020.1 |
| 20260502202532 | 76 | 336 | 0.0 | 0.0 | 0.00 | 0.00 | 0.00 | 37 | 1020.2 |
| 20260502202104 | 76 | 337 | 0.0 | 0.0 | 0.00 | 0.00 | 0.00 | 37 | 1020.3 |
| 20260502201531 | 76 | 336 | 0.0 | 0.0 | 0.00 | 0.00 | 0.00 | 39 | 1020.3 |
| 20260502201040 | 75 | 337 | 0.0 | 0.0 | 0.00 | 0.00 | 0.00 | 38 | 1020.4 |
| 20260502200533 | 76 | 336 | 0.0 | 0.0 | 0.00 | 0.00 | 0.00 | 39 | 1020.4 |
| 20260502200047 | 76 | 336 | 0.0 | 0.0 | 0.00 | 0.00 | 0.00 | 38 | 1020.4 |
| 20260502195538 | 75 | 337 | 0.0 | 0.0 | 0.00 | 0.00 | 0.00 | 37 | 1020.4 |
| 20260502195108 | 75 | 336 | 0.0 | 0.0 | 0.00 | 0.00 | 0.00 | 38 | 1020.5 |
| 20260502194534 | 75 | 336 | 0.0 | 0.0 | 0.00 | 0.00 | 0.00 | 37 | 1020.6 |
| 20260502194042 | 75 | 337 | 0.0 | 0.0 | 0.00 | 0.00 | 0.00 | 38 | 1020.6 |
| 20260502193550 | 76 | 337 | 0.0 | 0.0 | 0.00 | 0.00 | 0.00 | 38 | 1020.6 |
| 20260502193038 | 75 | 335 | 0.0 | 0.0 | 0.00 | 0.00 | 0.00 | 39 | 1020.7 |
| 20260502192544 | 75 | 336 | 0.0 | 0.0 | 0.00 | 0.00 | 0.00 | 40 | 1020.8 |
| 20260502192036 | 75 | 337 | 0.0 | 0.0 | 0.00 | 0.00 | 0.00 | 39 | 1020.8 |
| 20260502191544 | 75 | 337 | 0.0 | 0.0 | 0.00 | 0.00 | 0.00 | 38 | 1020.9 |
| 20260502191035 | 75 | 335 | 0.0 | 0.0 | 0.00 | 0.00 | 0.00 | 38 | 1020.9 |
| 20260502190543 | 75 | 336 | 0.0 | 0.0 | 0.00 | 0.00 | 0.00 | 36 | 1021.1 |
| 20260502190029 | 75 | 330 | 0.0 | 0.0 | 0.00 | 0.00 | 0.00 | 37 | 1021.1 |
| 20260502185606 | 75 | 336 | 0.0 | 0.0 | 0.00 | 0.00 | 0.00 | 39 | 1021.2 |
| 20260502185031 | 75 | 337 | 0.0 | 0.0 | 0.00 | 0.00 | 0.00 | 37 | 1021.2 |
| 20260502184604 | 75 | 333 | 0.0 | 0.0 | 0.00 | 0.00 | 0.00 | 38 | 1021.1 |
| 20260502184030 | 75 | 337 | 0.0 | 0.0 | 0.00 | 0.00 | 0.00 | 35 | 1021.3 |
| 20260502183541 | 75 | 331 | 0.0 | 0.0 | 0.00 | 0.00 | 0.00 | 37 | 1021.3 |
| 20260502183047 | 75 | 331 | 0.0 | 0.0 | 0.00 | 0.00 | 0.00 | 36 | 1021.3 |
| 20260502182604 | 75 | 336 | 0.0 | 0.0 | 0.00 | 0.00 | 0.00 | 36 | 1021.3 |
| 20260502182030 | 74 | 338 | 0.0 | 0.0 | 0.00 | 0.00 | 0.00 | 37 | 1021.4 |
| 20260502181537 | 74 | 330 | 0.0 | 0.0 | 0.00 | 0.00 | 0.00 | 37 | 1021.5 |
| 20260502181044 | 74 | 336 | 0.0 | 0.0 | 0.00 | 0.00 | 0.00 | 37 | 1021.6 |
| 20260502180539 | 74 | 336 | 0.0 | 0.0 | 0.00 | 0.00 | 0.00 | 36 | 1021.6 |
| 20260502164032 | 72 | 336 | 0.0 | 0.0 | 0.00 | 0.00 | 0.00 | 38 | 1022.2 |
| 20260502163543 | 72 | 337 | 0.0 | 0.0 | 0.00 | 0.00 | 0.00 | 39 | 1022.3 |
| 20260502163030 | 72 | 337 | 0.0 | 0.0 | 0.00 | 0.00 | 0.00 | 38 | 1022.2 |
| 20260502162543 | 72 | 331 | 0.0 | 0.0 | 0.00 | 0.00 | 0.00 | 38 | 1022.2 |
| 20260502162050 | 72 | 331 | 0.0 | 0.0 | 0.00 | 0.00 | 0.00 | 40 | 1022.2 |
| 20260502161546 | 71 | 331 | 0.0 | 0.0 | 0.00 | 0.00 | 0.00 | 38 | 1022.2 |
| 20260502161040 | 71 | 330 | 0.0 | 0.0 | 0.00 | 0.00 | 0.00 | 37 | 1022.2 |
| 20260502160548 | 71 | 331 | 0.0 | 0.0 | 0.00 | 0.00 | 0.00 | 37 | 1022.2 |
| 20260502152043 | 68 | 338 | 0.0 | 0.0 | 0.00 | 0.00 | 0.00 | 45 | 1022.1 |
| 20260502151530 | 67 | 331 | 0.0 | 0.0 | 0.00 | 0.00 | 0.00 | 52 | 1022.2 |
| 20260502151038 | 67 | 338 | 0.0 | 0.0 | 0.00 | 0.00 | 0.00 | 50 | 1022.1 |
| 20260502150534 | 67 | 338 | 0.0 | 0.0 | 0.00 | 0.00 | 0.00 | 51 | 1022.1 |
| 20260502130545 | 55 | 339 | 0.0 | 0.0 | 0.00 | 0.00 | 0.00 | 77 | 1021.1 |
| 20260502123601 | 52 | 340 | 0.0 | 0.0 | 0.00 | 0.00 | 0.00 | 81 | 1020.7 |
| 20260502123027 | 52 | 340 | 0.0 | 0.0 | 0.00 | 0.00 | 0.00 | 81 | 1020.7 |
| 20260502122559 | 51 | 340 | 0.0 | 0.0 | 0.00 | 0.00 | 0.00 | 82 | 1020.7 |
| 20260502122045 | 51 | 340 | 0.0 | 0.0 | 0.00 | 0.00 | 0.00 | 82 | 1020.6 |
| 20260502121555 | 51 | 340 | 0.0 | 0.0 | 0.00 | 0.00 | 0.00 | 82 | 1020.6 |
| 20260502121046 | 50 | 340 | 0.0 | 0.0 | 0.00 | 0.00 | 0.00 | 82 | 1020.5 |
| 20260502120600 | 50 | 340 | 0.0 | 0.0 | 0.00 | 0.00 | 0.00 | 82 | 1020.4 |
| 20260502115554 | 50 | 340 | 0.0 | 0.0 | 0.00 | 0.00 | 0.00 | 82 | 1020.3 |
| 20260502115043 | 50 | 340 | 0.0 | 0.0 | 0.00 | 0.00 | 0.00 | 82 | 1020.3 |
| 20260502114552 | 50 | 341 | 0.0 | 0.0 | 0.00 | 0.00 | 0.00 | 83 | 1020.2 |
| 20260502114042 | 50 | 340 | 0.0 | 0.0 | 0.00 | 0.00 | 0.00 | 83 | 1020.1 |
| 20260502113530 | 50 | 340 | 0.0 | 0.0 | 0.00 | 0.00 | 0.00 | 84 | 1020.1 |
| 20260502113043 | 50 | 340 | 0.0 | 0.0 | 0.00 | 0.00 | 0.00 | 84 | 1019.9 |
| 20260502112530 | 50 | 340 | 0.0 | 0.0 | 0.00 | 0.00 | 0.00 | 84 | 1019.8 |
| 20260502112038 | 50 | 340 | 0.0 | 0.0 | 0.00 | 0.00 | 0.00 | 85 | 1019.8 |
| 20260502111545 | 50 | 340 | 0.0 | 0.0 | 0.00 | 0.00 | 0.00 | 85 | 1019.8 |
| 20260502111055 | 50 | 340 | 0.0 | 0.0 | 0.00 | 0.00 | 0.00 | 84 | 1019.7 |
| 20260502110541 | 51 | 340 | 0.0 | 0.0 | 0.00 | 0.00 | 0.00 | 85 | 1019.7 |
| 20260502110049 | 51 | 340 | 0.0 | 0.0 | 0.00 | 0.00 | 0.00 | 85 | 1019.6 |
| 20260502105536 | 50 | 340 | 0.0 | 0.0 | 0.00 | 0.00 | 0.00 | 87 | 1019.5 |
| 20260502105027 | 50 | 340 | 0.0 | 0.0 | 0.00 | 0.00 | 0.00 | 88 | 1019.4 |
| 20260502104537 | 50 | 340 | 0.0 | 0.0 | 0.00 | 0.00 | 0.00 | 89 | 1019.3 |
| 20260502104033 | 49 | 340 | 0.0 | 0.0 | 0.00 | 0.00 | 0.00 | 89 | 1019.2 |
| 20260502103542 | 49 | 340 | 0.0 | 0.0 | 0.00 | 0.00 | 0.00 | 89 | 1019.1 |
| 20260502103029 | 49 | 340 | 0.0 | 0.0 | 0.00 | 0.00 | 0.00 | 89 | 1019.1 |
| 20260502102540 | 49 | 340 | 0.0 | 0.0 | 0.00 | 0.00 | 0.00 | 88 | 1019.1 |
| 20260502102028 | 49 | 340 | 0.0 | 0.0 | 0.00 | 0.00 | 0.00 | 88 | 1019.2 |
| 20260502101541 | 49 | 340 | 0.0 | 0.0 | 0.00 | 0.00 | 0.00 | 88 | 1019.2 |
| 20260502101027 | 50 | 340 | 0.0 | 0.0 | 0.00 | 0.00 | 0.00 | 87 | 1019.2 |
| 20260502100601 | 50 | 340 | 0.0 | 0.0 | 0.00 | 0.00 | 0.00 | 87 | 1019.2 |
| 20260502091036 | 51 | 340 | 0.0 | 0.0 | 0.00 | 0.00 | 0.00 | 86 | 1019.1 |
| 20260502090542 | 51 | 340 | 0.0 | 0.0 | 0.00 | 0.00 | 0.00 | 86 | 1019.1 |
| 20260502071530 | 54 | 340 | 0.0 | 0.0 | 0.00 | 0.00 | 0.00 | 85 | 1019.2 |
| 20260502071041 | 54 | 340 | 0.0 | 0.0 | 0.00 | 0.00 | 0.00 | 85 | 1019.1 |
| 20260502070531 | 54 | 340 | 0.0 | 0.0 | 0.00 | 0.00 | 0.00 | 85 | 1019.1 |
| 20260502070106 | 55 | 340 | 0.0 | 0.0 | 0.00 | 0.00 | 0.00 | 85 | 1019.1 |
| 20260502065533 | 55 | 340 | 0.0 | 0.0 | 0.00 | 0.00 | 0.00 | 85 | 1019.2 |
| 20260502065103 | 55 | 340 | 0.0 | 0.0 | 0.00 | 0.00 | 0.00 | 85 | 1019.2 |
| 20260502064550 | 55 | 340 | 0.0 | 0.0 | 0.00 | 0.00 | 0.00 | 85 | 1019.2 |
| 20260502064038 | 55 | 340 | 0.0 | 0.0 | 0.00 | 0.00 | 0.00 | 85 | 1019.2 |
| 20260502063608 | 55 | 340 | 0.0 | 0.0 | 0.00 | 0.00 | 0.00 | 85 | 1019.2 |
| 20260502063037 | 55 | 340 | 0.0 | 0.0 | 0.00 | 0.00 | 0.00 | 85 | 1019.2 |
| 20260502062530 | 55 | 340 | 0.0 | 0.0 | 0.00 | 0.00 | 0.00 | 85 | 1019.1 |
| 20260502062047 | 55 | 340 | 0.0 | 0.0 | 0.00 | 0.00 | 0.00 | 85 | 1019.2 |
| 20260502061554 | 55 | 340 | 0.0 | 0.0 | 0.00 | 0.00 | 0.00 | 84 | 1019.2 |
| 20260502061041 | 55 | 340 | 0.0 | 0.0 | 0.00 | 0.00 | 0.00 | 84 | 1019.1 |
| 20260502060532 | 55 | 340 | 0.0 | 0.0 | 0.00 | 0.00 | 0.00 | 84 | 1019.1 |
| 20260502060043 | 55 | 340 | 0.0 | 0.0 | 0.00 | 0.00 | 0.00 | 84 | 1019.1 |
| 20260502055550 | 55 | 340 | 0.0 | 0.0 | 0.00 | 0.01 | 0.00 | 84 | 1019.2 |
| 20260502055039 | 55 | 340 | 0.0 | 0.0 | 0.00 | 0.01 | 0.00 | 85 | 1019.3 |
| 20260502054528 | 55 | 336 | 0.0 | 0.0 | 0.00 | 0.01 | 0.00 | 85 | 1019.4 |
| 20260502054028 | 55 | 336 | 0.0 | 0.0 | 0.00 | 0.01 | 0.00 | 86 | 1019.4 |
| 20260502053542 | 55 | 336 | 0.0 | 0.0 | 0.00 | 0.01 | 0.00 | 86 | 1019.3 |
| 20260502053035 | 55 | 336 | 0.0 | 0.0 | 0.00 | 0.01 | 0.00 | 86 | 1019.3 |
| 20260502052541 | 55 | 336 | 0.0 | 0.0 | 0.00 | 0.01 | 0.00 | 86 | 1019.2 |
| 20260502052034 | 55 | 336 | 0.0 | 0.0 | 0.00 | 0.01 | 0.00 | 85 | 1019.2 |
| 20260502051548 | 55 | 336 | 0.0 | 0.0 | 0.00 | 0.01 | 0.00 | 85 | 1019.1 |
| 20260502051035 | 55 | 336 | 0.0 | 0.0 | 0.00 | 0.01 | 0.00 | 85 | 1019.1 |
| 20260502050545 | 55 | 336 | 0.0 | 0.0 | 0.00 | 0.01 | 0.00 | 85 | 1019.0 |
| 20260502050053 | 56 | 336 | 0.0 | 0.0 | 0.00 | 0.01 | 0.00 | 85 | 1019.0 |
| 20260502045545 | 56 | 336 | 0.0 | 0.0 | 0.00 | 0.02 | 0.01 | 85 | 1018.9 |
| 20260502045055 | 56 | 336 | 0.0 | 0.0 | 0.00 | 0.02 | 0.01 | 85 | 1018.9 |
| 20260502044545 | 56 | 336 | 0.0 | 0.0 | 0.00 | 0.02 | 0.01 | 84 | 1018.8 |
| 20260502044034 | 56 | 336 | 0.0 | 0.0 | 0.00 | 0.02 | 0.01 | 84 | 1018.8 |
| 20260502043545 | 56 | 336 | 0.0 | 0.0 | 0.00 | 0.02 | 0.01 | 84 | 1018.8 |
| 20260502043039 | 56 | 336 | 0.0 | 0.0 | 0.00 | 0.02 | 0.01 | 83 | 1018.9 |
| 20260502042545 | 56 | 336 | 0.0 | 0.0 | 0.00 | 0.02 | 0.01 | 83 | 1018.9 |
| 20260502042036 | 57 | 336 | 0.0 | 0.0 | 0.00 | 0.02 | 0.01 | 83 | 1018.9 |
| 20260502041546 | 57 | 336 | 0.0 | 0.0 | 0.00 | 0.02 | 0.01 | 82 | 1018.9 |
| 20260502041033 | 57 | 336 | 0.0 | 0.0 | 0.00 | 0.02 | 0.01 | 82 | 1018.9 |
| 20260502040541 | 57 | 336 | 0.0 | 0.0 | 0.00 | 0.02 | 0.01 | 82 | 1019.0 |
| 20260502040036 | 58 | 336 | 0.0 | 0.0 | 0.00 | 0.02 | 0.01 | 82 | 1019.0 |
| 20260502035610 | 58 | 336 | 0.0 | 0.0 | 0.00 | 0.02 | 0.01 | 81 | 1019.0 |
| 20260502035037 | 58 | 336 | 0.0 | 0.0 | 0.00 | 0.02 | 0.01 | 81 | 1019.0 |
| 20260502034548 | 58 | 336 | 0.0 | 0.0 | 0.00 | 0.02 | 0.01 | 80 | 1019.0 |
| 20260502034035 | 59 | 336 | 0.0 | 0.0 | 0.00 | 0.02 | 0.01 | 80 | 1018.9 |
| 20260502033549 | 59 | 336 | 0.0 | 0.0 | 0.00 | 0.02 | 0.01 | 80 | 1018.9 |
| 20260502033037 | 59 | 336 | 0.0 | 0.0 | 0.00 | 0.02 | 0.01 | 79 | 1018.8 |
| 20260502032548 | 59 | 336 | 0.0 | 0.0 | 0.00 | 0.02 | 0.01 | 78 | 1018.9 |
| 20260502032101 | 59 | 336 | 0.0 | 0.0 | 0.00 | 0.02 | 0.01 | 78 | 1018.9 |
| 20260502031529 | 59 | 336 | 0.0 | 0.0 | 0.00 | 0.02 | 0.01 | 78 | 1018.8 |
| 20260502031042 | 60 | 336 | 0.0 | 0.0 | 0.00 | 0.02 | 0.01 | 77 | 1018.7 |
| 20260502030533 | 60 | 335 | 0.0 | 0.0 | 0.00 | 0.02 | 0.01 | 77 | 1018.6 |
| 20260502030042 | 60 | 335 | 0.0 | 0.0 | 0.00 | 0.02 | 0.01 | 77 | 1018.6 |
| 20260502025532 | 60 | 335 | 0.0 | 0.0 | 0.00 | 0.02 | 0.01 | 76 | 1018.7 |
| 20260502025027 | 60 | 335 | 0.0 | 0.0 | 0.00 | 0.02 | 0.01 | 76 | 1018.6 |
| 20260502024541 | 60 | 335 | 0.0 | 0.0 | 0.00 | 0.02 | 0.01 | 76 | 1018.6 |
| 20260502024055 | 60 | 335 | 0.0 | 0.0 | 0.00 | 0.02 | 0.01 | 76 | 1018.6 |
| 20260502023602 | 61 | 335 | 0.0 | 0.0 | 0.00 | 0.02 | 0.01 | 75 | 1018.7 |
| 20260502023031 | 61 | 335 | 0.0 | 0.0 | 0.00 | 0.02 | 0.01 | 75 | 1018.6 |
| 20260502022542 | 61 | 335 | 0.0 | 0.0 | 0.00 | 0.02 | 0.01 | 75 | 1018.5 |
| 20260502022033 | 61 | 335 | 0.0 | 0.0 | 0.00 | 0.02 | 0.01 | 74 | 1018.3 |
| 20260502021544 | 61 | 335 | 0.0 | 0.0 | 0.00 | 0.02 | 0.01 | 74 | 1018.2 |
| 20260502021055 | 61 | 335 | 0.0 | 0.0 | 0.00 | 0.02 | 0.01 | 74 | 1018.2 |
| 20260502020531 | 61 | 335 | 0.0 | 0.0 | 0.00 | 0.02 | 0.01 | 74 | 1018.0 |
| 20260502020045 | 61 | 335 | 0.0 | 0.0 | 0.00 | 0.02 | 0.01 | 74 | 1017.9 |
| 20260502015539 | 61 | 335 | 0.0 | 0.0 | 0.00 | 0.02 | 0.01 | 74 | 1017.8 |
| 20260502015048 | 61 | 335 | 0.0 | 0.0 | 0.00 | 0.02 | 0.01 | 74 | 1017.7 |
| 20260502014537 | 61 | 335 | 0.0 | 0.0 | 0.00 | 0.02 | 0.01 | 74 | 1017.5 |
| 20260502014046 | 62 | 335 | 0.0 | 0.0 | 0.00 | 0.02 | 0.01 | 74 | 1017.4 |
| 20260502013554 | 62 | 335 | 0.0 | 0.0 | 0.00 | 0.02 | 0.01 | 74 | 1017.4 |
| 20260502013042 | 62 | 335 | 0.0 | 0.0 | 0.00 | 0.02 | 0.01 | 73 | 1017.3 |
| 20260502012549 | 62 | 335 | 0.0 | 0.0 | 0.00 | 0.02 | 0.01 | 72 | 1017.3 |
| 20260502012036 | 62 | 335 | 0.0 | 0.0 | 0.00 | 0.02 | 0.01 | 72 | 1017.3 |
| 20260502011549 | 62 | 335 | 0.0 | 0.0 | 0.00 | 0.02 | 0.01 | 71 | 1017.1 |
| 20260502011037 | 62 | 335 | 0.0 | 0.0 | 0.00 | 0.02 | 0.01 | 71 | 1017.1 |
| 20260502010550 | 62 | 335 | 0.0 | 0.0 | 0.00 | 0.02 | 0.01 | 71 | 1017.0 |
| 20260502010041 | 62 | 335 | 0.0 | 0.0 | 0.00 | 0.02 | 0.01 | 70 | 1016.9 |
| 20260502005537 | 62 | 335 | 0.0 | 0.0 | 0.00 | 0.02 | 0.01 | 70 | 1016.8 |
| 20260502005048 | 63 | 335 | 0.0 | 0.0 | 0.00 | 0.02 | 0.01 | 70 | 1016.7 |
| 20260502004535 | 63 | 335 | 0.0 | 0.0 | 0.00 | 0.02 | 0.01 | 70 | 1016.6 |
| 20260502004042 | 63 | 335 | 0.0 | 0.0 | 0.00 | 0.02 | 0.01 | 69 | 1016.5 |
| 20260502003532 | 63 | 335 | 0.0 | 0.0 | 0.00 | 0.02 | 0.01 | 69 | 1016.4 |
| 20260502003043 | 63 | 335 | 0.0 | 0.0 | 0.00 | 0.02 | 0.01 | 68 | 1016.3 |
| 20260502002534 | 63 | 335 | 0.0 | 0.0 | 0.00 | 0.02 | 0.01 | 67 | 1016.3 |
| 20260502002046 | 63 | 335 | 0.0 | 0.0 | 0.00 | 0.02 | 0.01 | 68 | 1016.2 |
| 20260502001540 | 64 | 335 | 0.0 | 0.0 | 0.00 | 0.02 | 0.01 | 68 | 1016.1 |
| 20260502001046 | 64 | 335 | 0.0 | 0.0 | 0.00 | 0.02 | 0.01 | 67 | 1016.0 |
| 20260502000539 | 64 | 335 | 0.0 | 0.0 | 0.00 | 0.02 | 0.01 | 67 | 1015.9 |
| 20260502000047 | 64 | 335 | 0.0 | 0.0 | 0.00 | 0.02 | 0.01 | 66 | 1015.9 |
| 20260501235538 | 64 | 335 | 0.0 | 0.0 | 0.00 | 0.02 | 0.01 | 66 | 1015.9 |
| 20260501235047 | 64 | 335 | 0.0 | 0.0 | 0.00 | 0.02 | 0.01 | 66 | 1015.8 |
| 20260501234533 | 64 | 335 | 0.0 | 0.0 | 0.00 | 0.02 | 0.01 | 65 | 1015.8 |
| 20260501234041 | 64 | 335 | 0.0 | 0.0 | 0.00 | 0.02 | 0.01 | 65 | 1015.8 |
| 20260501233532 | 64 | 335 | 0.0 | 0.0 | 0.00 | 0.02 | 0.01 | 65 | 1015.8 |
| 20260501233103 | 64 | 335 | 0.0 | 0.0 | 0.00 | 0.02 | 0.01 | 64 | 1015.6 |
| 20260501232536 | 65 | 334 | 0.0 | 0.0 | 0.00 | 0.02 | 0.01 | 63 | 1015.6 |
| 20260501232045 | 65 | 334 | 0.0 | 0.0 | 0.00 | 0.02 | 0.01 | 62 | 1015.6 |
| 20260501231535 | 65 | 334 | 0.0 | 0.0 | 0.00 | 0.02 | 0.01 | 62 | 1015.6 |
| 20260501231043 | 65 | 334 | 0.0 | 0.0 | 0.00 | 0.02 | 0.01 | 63 | 1015.5 |
| 20260501230534 | 65 | 334 | 0.0 | 0.0 | 0.00 | 0.02 | 0.01 | 62 | 1015.5 |
| 20260501230043 | 65 | 335 | 0.0 | 0.0 | 0.00 | 0.02 | 0.01 | 63 | 1015.4 |
| 20260501225531 | 65 | 334 | 0.0 | 0.0 | 0.00 | 0.02 | 0.01 | 62 | 1015.3 |
| 20260501225101 | 65 | 334 | 0.0 | 0.0 | 0.00 | 0.02 | 0.01 | 62 | 1015.2 |
| 20260501224550 | 65 | 333 | 0.0 | 0.0 | 0.00 | 0.02 | 0.01 | 62 | 1015.2 |
| 20260501224044 | 65 | 333 | 0.0 | 0.0 | 0.00 | 0.02 | 0.01 | 62 | 1015.3 |
| 20260501223531 | 65 | 333 | 0.0 | 0.0 | 0.00 | 0.02 | 0.01 | 61 | 1015.2 |
| 20260501223043 | 65 | 334 | 0.0 | 0.0 | 0.00 | 0.02 | 0.01 | 61 | 1015.2 |
| 20260501222530 | 65 | 333 | 0.0 | 0.0 | 0.00 | 0.02 | 0.01 | 61 | 1015.2 |
| 20260501222041 | 65 | 334 | 0.0 | 0.0 | 0.00 | 0.02 | 0.01 | 61 | 1015.2 |